DLH576L RKSI-ZBAA

Flight info

Callsign DLH576L
Flight time 1h 39m
Altitude 38000
Route NOPIK2A NOPIK Y697 AGAVO/K0726S0660 A591 IKEKA W4 HCH W200 DOVIV W55 DUMAP DUMAP9Z
Aircraft A20N/M-SDE2E3FGHIRWXY/LB1

Departure

Time 2026-05-04 14:05
Airport Incheon International Airport (RKSI)

Arrival

Time 2026-05-04 15:44
Airport Beijing Capital International Airport (ZBAA)
Time Latitude Longitude Altitude Speed Heading
2026-05-04 13:21 37.45441 126.45129 23 ft 0 kts 190°
2026-05-04 13:26 37.45724 126.46588 31 ft 0 kts 238°
2026-05-04 13:28 37.45729 126.46597 32 ft 7 kts 241°
2026-05-04 13:28 37.45738 126.46669 31 ft 9 kts 287°
2026-05-04 13:28 37.45704 126.46727 34 ft 3 kts 318°
2026-05-04 13:28 37.45689 126.46745 34 ft 0 kts 315°
2026-05-04 13:29 37.45441 126.45129 32 ft 0 kts 190°
2026-05-04 13:51 37.45442 126.45130 32 ft 2 kts 190°
2026-05-04 13:51 37.45458 126.45132 32 ft 2 kts 185°
2026-05-04 13:52 37.45491 126.45130 32 ft 2 kts 165°
2026-05-04 13:52 37.45506 126.45123 32 ft 2 kts 148°
2026-05-04 13:52 37.45519 126.45110 32 ft 2 kts 124°
2026-05-04 13:53 37.45526 126.45091 32 ft 2 kts 96°
2026-05-04 13:53 37.45526 126.45075 32 ft 1 kts 71°
2026-05-04 13:53 37.45525 126.45072 32 ft 0 kts 67°
2026-05-04 13:56 37.45531 126.45088 32 ft 7 kts 66°
2026-05-04 13:56 37.45667 126.45198 32 ft 17 kts 322°
2026-05-04 13:57 37.45645 126.45080 32 ft 17 kts 238°
2026-05-04 13:57 37.45562 126.44933 32 ft 24 kts 234°
2026-05-04 13:58 37.45189 126.44270 32 ft 36 kts 235°
2026-05-04 13:58 37.45004 126.44146 32 ft 9 kts 229°
2026-05-04 13:58 37.44970 126.44092 32 ft 14 kts 232°
2026-05-04 13:59 37.44903 126.43987 32 ft 16 kts 214°
2026-05-04 13:59 37.44839 126.44006 31 ft 12 kts 152°
2026-05-04 13:59 37.44573 126.44229 32 ft 28 kts 146°
2026-05-04 14:00 37.44492 126.44219 31 ft 0 kts 241°
2026-05-04 14:00 37.44488 126.44211 32 ft 0 kts 241°
2026-05-04 14:01 37.44487 126.44210 32 ft 0 kts 241°
2026-05-04 14:03 37.44486 126.44206 32 ft 4 kts 241°
2026-05-04 14:04 37.44535 126.44003 32 ft 16 kts 325°
2026-05-04 14:04 37.44807 126.43757 32 ft 81 kts 324°
2026-05-04 14:04 37.45421 126.43209 32 ft 131 kts 324°
2026-05-04 14:05 37.47223 126.41643 603 ft 166 kts 323°
2026-05-04 14:05 37.48211 126.40797 1132 ft 176 kts 323°
2026-05-04 14:05 37.49264 126.39972 1765 ft 181 kts 329°
2026-05-04 14:06 37.50435 126.39241 2143 ft 197 kts 331°
2026-05-04 14:06 37.51757 126.38423 2435 ft 221 kts 331°
2026-05-04 14:06 37.53226 126.37504 2970 ft 243 kts 331°
2026-05-04 14:06 37.54752 126.36541 3784 ft 253 kts 331°
2026-05-04 14:07 37.56329 126.35536 4859 ft 256 kts 331°
2026-05-04 14:07 37.57929 126.34505 5883 ft 261 kts 331°
2026-05-04 14:07 37.59400 126.33171 6865 ft 264 kts 309°
2026-05-04 14:07 37.60247 126.31087 7813 ft 269 kts 282°
2026-05-04 14:08 37.60239 126.28723 8747 ft 276 kts 258°
2026-05-04 14:08 37.59639 126.26393 9699 ft 283 kts 248°
2026-05-04 14:08 37.58805 126.24106 10474 ft 295 kts 246°
2026-05-04 14:08 37.57902 126.21674 10855 ft 319 kts 246°
2026-05-04 14:09 37.55930 126.16310 12143 ft 342 kts 246°
2026-05-04 14:09 37.54928 126.13565 13029 ft 346 kts 245°
2026-05-04 14:10 37.52804 126.08028 14661 ft 355 kts 244°
2026-05-04 14:10 37.51699 126.05164 15429 ft 360 kts 245°
2026-05-04 14:10 37.50625 126.02355 16176 ft 364 kts 245°
2026-05-04 14:10 37.49529 125.99470 16921 ft 368 kts 245°
2026-05-04 14:11 37.48419 125.96544 17663 ft 372 kts 245°
2026-05-04 14:11 37.46160 125.90580 19001 ft 381 kts 245°
2026-05-04 14:11 37.45011 125.87553 19644 ft 385 kts 245°
2026-05-04 14:12 37.43851 125.84498 20279 ft 389 kts 245°
2026-05-04 14:12 37.42678 125.81414 20905 ft 393 kts 245°
2026-05-04 14:12 37.40754 125.74953 22166 ft 398 kts 259°
2026-05-04 14:13 37.40397 125.71503 22776 ft 400 kts 269°
2026-05-04 14:13 37.40355 125.67949 23419 ft 403 kts 271°
2026-05-04 14:13 37.40319 125.64414 23968 ft 406 kts 270°
2026-05-04 14:13 37.40274 125.60850 24530 ft 408 kts 270°
2026-05-04 14:14 37.40226 125.57281 25080 ft 409 kts 270°
2026-05-04 14:14 37.40122 125.50081 26109 ft 414 kts 270°
2026-05-04 14:14 37.40069 125.46452 26611 ft 416 kts 270°
2026-05-04 14:15 37.39957 125.39140 27591 ft 420 kts 270°
2026-05-04 14:15 37.39841 125.31751 28485 ft 425 kts 270°
2026-05-04 14:16 37.39718 125.24285 29335 ft 429 kts 270°
2026-05-04 14:16 37.39654 125.20528 29739 ft 431 kts 270°
2026-05-04 14:17 37.39524 125.12951 30510 ft 435 kts 270°
2026-05-04 14:17 37.39457 125.09152 30885 ft 436 kts 269°
2026-05-04 14:17 37.39319 125.01523 31914 ft 431 kts 269°
2026-05-04 14:18 37.39249 124.97747 32284 ft 432 kts 269°
2026-05-04 14:18 37.39106 124.90232 33223 ft 428 kts 269°
2026-05-04 14:19 37.38958 124.82783 34154 ft 424 kts 269°
2026-05-04 14:19 37.38883 124.79090 34515 ft 422 kts 269°
2026-05-04 14:19 37.38807 124.75406 34866 ft 420 kts 269°
2026-05-04 14:19 37.38730 124.71748 35202 ft 419 kts 269°
2026-05-04 14:20 37.38652 124.68083 35542 ft 418 kts 269°
2026-05-04 14:20 37.38573 124.64438 35859 ft 417 kts 269°
2026-05-04 14:20 37.38492 124.60757 36178 ft 415 kts 269°
2026-05-04 14:21 37.38330 124.53528 36798 ft 413 kts 269°
2026-05-04 14:21 37.38247 124.49919 37072 ft 412 kts 269°
2026-05-04 14:21 37.38076 124.46331 37343 ft 411 kts 263°
2026-05-04 14:21 37.37521 124.42804 37605 ft 412 kts 256°
2026-05-04 14:22 37.36575 124.39404 37855 ft 413 kts 249°
2026-05-04 14:22 37.35255 124.36183 38039 ft 416 kts 241°
2026-05-04 14:22 37.32166 124.30059 38086 ft 414 kts 241°
2026-05-04 14:23 37.28059 124.21872 38090 ft 414 kts 241°
2026-05-04 14:24 37.24982 124.15753 38088 ft 414 kts 241°
2026-05-04 14:24 37.21869 124.09668 38087 ft 415 kts 240°
2026-05-04 14:25 37.18687 124.03746 38089 ft 415 kts 239°
2026-05-04 14:25 37.13862 123.94623 38090 ft 415 kts 240°
2026-05-04 14:26 37.10729 123.88502 38090 ft 415 kts 240°
2026-05-04 14:26 37.07604 123.82432 38086 ft 415 kts 240°
2026-05-04 14:27 37.04468 123.76369 38086 ft 415 kts 240°
2026-05-04 14:27 37.01328 123.70310 38091 ft 415 kts 240°
2026-05-04 14:28 36.98183 123.64254 38092 ft 415 kts 240°
2026-05-04 14:28 36.95034 123.58200 38093 ft 415 kts 240°
2026-05-04 14:29 36.88727 123.46106 38095 ft 415 kts 240°
2026-05-04 14:30 36.86014 123.39800 38086 ft 410 kts 253°
2026-05-04 14:30 36.84901 123.32893 38083 ft 405 kts 269°
2026-05-04 14:31 36.84969 123.29376 38082 ft 405 kts 276°
2026-05-04 14:32 36.87893 123.15813 38080 ft 406 kts 286°
2026-05-04 14:32 36.89520 123.09058 38082 ft 407 kts 286°
2026-05-04 14:33 36.91145 123.02290 38084 ft 407 kts 286°
2026-05-04 14:33 36.92781 122.95457 38092 ft 408 kts 286°
2026-05-04 14:34 36.94405 122.88659 38086 ft 409 kts 286°
2026-05-04 14:34 36.96029 122.81841 38087 ft 409 kts 286°
2026-05-04 14:35 36.97649 122.75022 38095 ft 410 kts 286°
2026-05-04 14:35 36.99267 122.68187 38089 ft 410 kts 286°
2026-05-04 14:36 37.00884 122.61343 38096 ft 410 kts 286°
2026-05-04 14:36 37.02493 122.54507 38088 ft 410 kts 286°
2026-05-04 14:37 37.04116 122.47599 38095 ft 410 kts 286°
2026-05-04 14:37 37.05719 122.40750 38086 ft 410 kts 286°
2026-05-04 14:38 37.07323 122.33897 38081 ft 410 kts 287°
2026-05-04 14:38 37.09414 122.27186 38084 ft 411 kts 292°
2026-05-04 14:39 37.11616 122.20585 38082 ft 411 kts 292°
2026-05-04 14:39 37.13810 122.13973 38075 ft 411 kts 292°
2026-05-04 14:40 37.17109 122.04005 38067 ft 411 kts 292°
2026-05-04 14:40 37.19295 121.97384 38063 ft 411 kts 292°
2026-05-04 14:41 37.21465 121.90798 38065 ft 411 kts 292°
2026-05-04 14:42 37.25834 121.77487 38050 ft 411 kts 291°
2026-05-04 14:42 37.28023 121.70796 38049 ft 412 kts 291°
2026-05-04 14:43 37.30195 121.64140 38048 ft 412 kts 291°
2026-05-04 14:43 37.32365 121.57475 38049 ft 412 kts 291°
2026-05-04 14:44 37.34548 121.50755 38046 ft 413 kts 291°
2026-05-04 14:44 37.36712 121.44080 38043 ft 413 kts 291°
2026-05-04 14:45 37.38876 121.37389 38039 ft 413 kts 291°
2026-05-04 14:45 37.41037 121.30691 38037 ft 413 kts 291°
2026-05-04 14:46 37.43195 121.23989 38038 ft 413 kts 291°
2026-05-04 14:46 37.45349 121.17283 38038 ft 413 kts 291°
2026-05-04 14:47 37.47496 121.10560 38030 ft 414 kts 291°
2026-05-04 14:47 37.49637 121.03834 38028 ft 414 kts 291°
2026-05-04 14:48 37.51787 120.97065 38026 ft 414 kts 291°
2026-05-04 14:48 37.53923 120.90328 38020 ft 414 kts 291°
2026-05-04 14:49 37.56055 120.83588 38015 ft 414 kts 291°
2026-05-04 14:49 37.58184 120.76841 38017 ft 414 kts 291°
2026-05-04 14:50 37.60351 120.70115 38017 ft 414 kts 292°
2026-05-04 14:50 37.62574 120.63408 38008 ft 414 kts 292°
2026-05-04 14:51 37.64429 120.57778 38009 ft 415 kts 292°
2026-05-04 14:51 37.66977 120.51266 38003 ft 415 kts 300°
2026-05-04 14:52 37.69868 120.44968 37999 ft 415 kts 300°
2026-05-04 14:52 37.72741 120.38650 37997 ft 415 kts 300°
2026-05-04 14:53 37.75615 120.32327 37994 ft 415 kts 300°
2026-05-04 14:53 37.78486 120.26003 37989 ft 415 kts 300°
2026-05-04 14:54 37.81352 120.19678 37987 ft 415 kts 300°
2026-05-04 14:54 37.84218 120.13342 37985 ft 415 kts 300°
2026-05-04 14:55 37.87083 120.06994 37759 ft 416 kts 300°
2026-05-04 14:55 37.88518 120.03808 37230 ft 418 kts 300°
2026-05-04 14:55 37.89957 120.00612 36581 ft 419 kts 300°
2026-05-04 14:56 37.91401 119.97399 35941 ft 420 kts 300°
2026-05-04 14:56 37.92845 119.94184 35319 ft 421 kts 300°
2026-05-04 14:56 37.94294 119.90954 34715 ft 423 kts 301°
2026-05-04 14:56 37.95747 119.87710 34114 ft 426 kts 301°
2026-05-04 14:57 37.97219 119.84422 33464 ft 429 kts 301°
2026-05-04 14:57 37.98694 119.81125 32786 ft 431 kts 301°
2026-05-04 14:57 38.00192 119.77775 32118 ft 432 kts 301°
2026-05-04 14:57 38.01674 119.74456 31480 ft 434 kts 301°
2026-05-04 14:58 38.03168 119.71108 30848 ft 437 kts 301°
2026-05-04 14:58 38.04686 119.67702 30242 ft 438 kts 301°
2026-05-04 14:58 38.06179 119.64346 29547 ft 436 kts 301°
2026-05-04 14:58 38.07666 119.61002 28840 ft 432 kts 301°
2026-05-04 14:59 38.09134 119.57697 28154 ft 428 kts 301°
2026-05-04 14:59 38.10586 119.54412 27491 ft 425 kts 300°
2026-05-04 14:59 38.12948 119.47590 26197 ft 419 kts 294°
2026-05-04 15:00 38.14058 119.44191 25571 ft 415 kts 294°
2026-05-04 15:00 38.15162 119.40816 24967 ft 412 kts 294°
2026-05-04 15:00 38.16259 119.37458 24368 ft 410 kts 294°
2026-05-04 15:01 38.18436 119.30775 23146 ft 408 kts 294°
2026-05-04 15:01 38.19517 119.27447 22464 ft 406 kts 294°
2026-05-04 15:01 38.20587 119.24146 21805 ft 403 kts 293°
2026-05-04 15:01 38.21650 119.20862 21156 ft 400 kts 293°
2026-05-04 15:02 38.22702 119.17608 20515 ft 397 kts 293°
2026-05-04 15:02 38.23748 119.14371 19893 ft 394 kts 293°
2026-05-04 15:02 38.24785 119.11156 19292 ft 391 kts 293°
2026-05-04 15:02 38.25814 119.07965 18698 ft 389 kts 293°
2026-05-04 15:03 38.26836 119.04792 18097 ft 386 kts 293°
2026-05-04 15:03 38.27846 119.01646 17439 ft 383 kts 293°
2026-05-04 15:03 38.28848 118.98522 16788 ft 379 kts 294°
2026-05-04 15:03 38.29839 118.95425 16150 ft 376 kts 294°
2026-05-04 15:04 38.30821 118.92360 15528 ft 372 kts 294°
2026-05-04 15:04 38.31794 118.89319 14913 ft 369 kts 294°
2026-05-04 15:04 38.32757 118.86307 14315 ft 366 kts 294°
2026-05-04 15:04 38.33710 118.83326 13730 ft 362 kts 294°
2026-05-04 15:05 38.34657 118.80361 13073 ft 359 kts 294°
2026-05-04 15:05 38.35593 118.77426 12429 ft 357 kts 294°
2026-05-04 15:05 38.36520 118.74518 11965 ft 349 kts 294°
2026-05-04 15:05 38.37415 118.71713 11807 ft 334 kts 294°
2026-05-04 15:06 38.38270 118.69036 11664 ft 319 kts 294°
2026-05-04 15:06 38.39084 118.66487 11496 ft 301 kts 294°
2026-05-04 15:06 38.39849 118.64087 11283 ft 287 kts 294°
2026-05-04 15:07 38.41334 118.59438 10542 ft 282 kts 294°
2026-05-04 15:07 38.42070 118.57133 10161 ft 280 kts 293°
2026-05-04 15:07 38.42801 118.54837 9770 ft 279 kts 293°
2026-05-04 15:07 38.43526 118.52556 9373 ft 277 kts 293°
2026-05-04 15:08 38.44248 118.50282 8949 ft 276 kts 292°
2026-05-04 15:08 38.44966 118.48024 8534 ft 274 kts 292°
2026-05-04 15:08 38.45678 118.45779 8117 ft 273 kts 292°
2026-05-04 15:08 38.46387 118.43543 7779 ft 269 kts 292°
2026-05-04 15:09 38.47084 118.41342 7643 ft 271 kts 292°
2026-05-04 15:09 38.47795 118.39098 7518 ft 273 kts 292°
2026-05-04 15:09 38.48500 118.36864 7392 ft 270 kts 292°
2026-05-04 15:10 38.49903 118.32414 7157 ft 271 kts 291°
2026-05-04 15:10 38.50604 118.30188 7038 ft 270 kts 291°
2026-05-04 15:10 38.52002 118.25746 6789 ft 269 kts 291°
2026-05-04 15:11 38.52695 118.23540 6672 ft 269 kts 291°
2026-05-04 15:11 38.53393 118.21317 6559 ft 269 kts 291°
2026-05-04 15:11 38.54089 118.19099 6429 ft 269 kts 290°
2026-05-04 15:11 38.54783 118.16885 6313 ft 268 kts 290°
2026-05-04 15:12 38.55477 118.14671 6187 ft 268 kts 290°
2026-05-04 15:12 38.56166 118.12469 6061 ft 267 kts 290°
2026-05-04 15:12 38.56856 118.10265 5935 ft 266 kts 290°
2026-05-04 15:12 38.57542 118.08071 5808 ft 266 kts 290°
2026-05-04 15:13 38.58226 118.05879 5682 ft 266 kts 290°
2026-05-04 15:13 38.58912 118.03683 5478 ft 265 kts 289°
2026-05-04 15:13 38.59602 118.01511 5381 ft 264 kts 290°
2026-05-04 15:13 38.60349 117.99360 5320 ft 264 kts 292°
2026-05-04 15:14 38.61114 117.97227 5312 ft 264 kts 292°
2026-05-04 15:14 38.61880 117.95088 5308 ft 265 kts 292°
2026-05-04 15:14 38.62640 117.92946 5309 ft 264 kts 291°
2026-05-04 15:14 38.63395 117.90799 5307 ft 265 kts 291°
2026-05-04 15:15 38.64147 117.88651 5311 ft 265 kts 291°
2026-05-04 15:15 38.64899 117.86500 5309 ft 265 kts 291°
2026-05-04 15:15 38.65649 117.84349 5308 ft 265 kts 291°
2026-05-04 15:16 38.67148 117.80047 5309 ft 264 kts 291°
2026-05-04 15:16 38.67898 117.77890 5312 ft 265 kts 291°
2026-05-04 15:16 38.69405 117.73553 5305 ft 265 kts 291°
2026-05-04 15:17 38.70154 117.71397 5307 ft 266 kts 291°
2026-05-04 15:17 38.71661 117.67056 5308 ft 265 kts 291°
2026-05-04 15:17 38.72408 117.64897 5309 ft 265 kts 291°
2026-05-04 15:18 38.73161 117.62729 5309 ft 265 kts 291°
2026-05-04 15:18 38.73908 117.60580 5306 ft 264 kts 291°
2026-05-04 15:18 38.74652 117.58414 5311 ft 267 kts 291°
2026-05-04 15:19 38.76143 117.54093 5310 ft 266 kts 291°
2026-05-04 15:19 38.76888 117.51925 5301 ft 265 kts 291°
2026-05-04 15:19 38.78374 117.47607 5307 ft 265 kts 290°
2026-05-04 15:20 38.79120 117.45450 5305 ft 265 kts 291°
2026-05-04 15:20 38.79863 117.43295 5299 ft 264 kts 290°
2026-05-04 15:20 38.80607 117.41132 5303 ft 265 kts 290°
2026-05-04 15:20 38.81355 117.38947 5303 ft 265 kts 290°
2026-05-04 15:21 38.82085 117.36814 5297 ft 264 kts 290°
2026-05-04 15:21 38.82827 117.34665 5114 ft 264 kts 290°
2026-05-04 15:21 38.84314 117.30343 4808 ft 263 kts 290°
2026-05-04 15:22 38.85050 117.28198 4718 ft 263 kts 290°
2026-05-04 15:22 38.85614 117.26819 4696 ft 266 kts 301°
2026-05-04 15:22 38.88825 117.24323 4689 ft 279 kts 337°
2026-05-04 15:23 38.90665 117.23530 4689 ft 279 kts 338°
2026-05-04 15:23 38.92507 117.22740 4692 ft 279 kts 337°
2026-05-04 15:23 38.94343 117.21945 4689 ft 279 kts 337°
2026-05-04 15:23 38.96183 117.21135 4690 ft 280 kts 337°
2026-05-04 15:24 38.99856 117.19512 4686 ft 279 kts 337°
2026-05-04 15:24 39.03554 117.17874 4689 ft 279 kts 336°
2026-05-04 15:25 39.05392 117.17060 4688 ft 279 kts 336°
2026-05-04 15:25 39.07230 117.16243 4687 ft 279 kts 336°
2026-05-04 15:25 39.09066 117.15426 4688 ft 280 kts 336°
2026-05-04 15:26 39.12752 117.13794 4687 ft 280 kts 336°
2026-05-04 15:26 39.14590 117.12980 4687 ft 279 kts 336°
2026-05-04 15:26 39.18263 117.11347 4688 ft 280 kts 336°
2026-05-04 15:27 39.20106 117.10528 4686 ft 280 kts 336°
2026-05-04 15:27 39.23807 117.08885 4338 ft 281 kts 336°
2026-05-04 15:28 39.27497 117.07243 3676 ft 275 kts 336°
2026-05-04 15:28 39.29288 117.06447 3606 ft 276 kts 335°
2026-05-04 15:28 39.32910 117.04824 3423 ft 274 kts 335°
2026-05-04 15:29 39.34717 117.04021 3341 ft 273 kts 335°
2026-05-04 15:30 39.41885 117.00813 3012 ft 272 kts 334°
2026-05-04 15:30 39.47316 116.98373 2975 ft 272 kts 334°
2026-05-04 15:31 39.50909 116.96758 2497 ft 269 kts 335°
2026-05-04 15:31 39.52698 116.95950 2140 ft 268 kts 335°
2026-05-04 15:32 39.58096 116.93527 1966 ft 274 kts 334°
2026-05-04 15:32 39.61485 116.91516 1873 ft 261 kts 313°
2026-05-04 15:33 39.63688 116.87906 1793 ft 253 kts 299°
2026-05-04 15:34 39.66813 116.82395 1627 ft 240 kts 300°
2026-05-04 15:34 39.67786 116.80690 1537 ft 230 kts 298°
2026-05-04 15:34 39.68416 116.77153 1512 ft 192 kts 256°
2026-05-04 15:35 39.68071 116.73676 1508 ft 196 kts 258°
2026-05-04 15:35 39.67911 116.71926 1513 ft 195 kts 258°
2026-05-04 15:35 39.67753 116.70163 1499 ft 197 kts 258°
2026-05-04 15:36 39.67445 116.66675 1512 ft 193 kts 260°
2026-05-04 15:36 39.67766 116.65010 1512 ft 212 kts 297°
2026-05-04 15:36 39.68997 116.63759 1504 ft 231 kts 330°
2026-05-04 15:37 39.70037 116.63336 1497 ft 233 kts 342°
2026-05-04 15:37 39.71641 116.63004 1512 ft 234 kts 348°
2026-05-04 15:37 39.73284 116.62762 1508 ft 235 kts 348°
2026-05-04 15:37 39.74908 116.62522 1498 ft 235 kts 348°
2026-05-04 15:38 39.76531 116.62271 1497 ft 235 kts 348°
2026-05-04 15:38 39.78155 116.62013 1506 ft 235 kts 348°
2026-05-04 15:38 39.79781 116.61755 1497 ft 238 kts 347°
2026-05-04 15:38 39.81433 116.61497 1498 ft 238 kts 347°
2026-05-04 15:39 39.83028 116.61253 1508 ft 223 kts 347°
2026-05-04 15:39 39.84526 116.61026 1492 ft 203 kts 347°
2026-05-04 15:39 39.87261 116.60585 1502 ft 205 kts 347°
2026-05-04 15:40 39.88671 116.60365 1503 ft 203 kts 347°
2026-05-04 15:40 39.90073 116.60144 1493 ft 201 kts 348°
2026-05-04 15:40 39.91462 116.59925 1495 ft 202 kts 347°
2026-05-04 15:40 39.92880 116.59699 1506 ft 206 kts 348°
2026-05-04 15:41 39.94287 116.59480 1506 ft 203 kts 347°
2026-05-04 15:41 39.95676 116.59262 1494 ft 199 kts 347°
2026-05-04 15:41 39.97037 116.59047 1492 ft 190 kts 347°
2026-05-04 15:41 39.98283 116.58854 1484 ft 170 kts 347°
2026-05-04 15:42 39.99498 116.58656 1509 ft 185 kts 347°
2026-05-04 15:42 40.00769 116.58458 1474 ft 185 kts 348°
2026-05-04 15:42 40.01987 116.58266 1224 ft 173 kts 348°
2026-05-04 15:42 40.03034 116.58102 1009 ft 157 kts 349°
2026-05-04 15:43 40.04068 116.57937 800 ft 146 kts 352°
2026-05-04 15:43 40.05037 116.57783 603 ft 135 kts 353°
2026-05-04 15:43 40.05966 116.57635 434 ft 135 kts 353°
2026-05-04 15:43 40.06904 116.57475 246 ft 136 kts 353°
2026-05-04 15:44 40.07819 116.57340 124 ft 130 kts 354°
2026-05-04 15:44 40.08632 116.57216 108 ft 96 kts 353°
2026-05-04 15:44 40.09089 116.57143 111 ft 38 kts 353°
2026-05-04 15:44 40.09318 116.57106 112 ft 29 kts 353°
2026-05-04 15:45 40.09482 116.57101 113 ft 18 kts
2026-05-04 15:45 40.09574 116.57124 110 ft 9 kts 13°
2026-05-04 15:45 40.09603 116.57135 111 ft 4 kts 17°
2026-05-04 15:45 40.09695 116.57205 110 ft 16 kts 64°
2026-05-04 15:46 40.09668 116.57263 109 ft 12 kts 152°
2026-05-04 15:46 40.09531 116.57293 110 ft 28 kts 174°
2026-05-04 15:46 40.09296 116.57334 111 ft 40 kts 172°
2026-05-04 15:46 40.08995 116.57379 110 ft 45 kts 174°
2026-05-04 15:47 40.08684 116.57430 110 ft 45 kts 173°
2026-05-04 15:47 40.08375 116.57474 110 ft 44 kts 173°
2026-05-04 15:47 40.08175 116.57533 109 ft 15 kts 127°
2026-05-04 15:47 40.08164 116.57653 110 ft 14 kts 82°
2026-05-04 15:48 40.08176 116.57791 110 ft 17 kts 84°
2026-05-04 15:48 40.08231 116.57931 110 ft 19 kts 62°
2026-05-04 15:48 40.08222 116.58090 110 ft 5 kts 201°
2026-05-04 15:49 40.08183 116.58067 110 ft 5 kts 193°
2026-05-04 15:49 40.08171 116.58063 110 ft 0 kts 192°